TimeCST,TemperatureF,Dew PointF,Humidity,Sea Level PressureIn,VisibilityMPH,Wind Direction,Wind SpeedMPH,Gust SpeedMPH,PrecipitationIn,Events,Conditions,WindDirDegrees,DateUTC
12:54 AM,25.0,21.0,85,30.42,10.0,Calm,Calm,-,N/A,,Clear,0,2012-11-16 06:54:00
1:54 AM,25.0,21.0,85,30.43,10.0,Calm,Calm,-,N/A,,Clear,0,2012-11-16 07:54:00
2:54 AM,21.9,19.0,89,30.45,10.0,Calm,Calm,-,N/A,,Clear,0,2012-11-16 08:54:00
3:54 AM,21.0,17.1,85,30.47,10.0,Calm,Calm,-,N/A,,Clear,0,2012-11-16 09:54:00
4:54 AM,19.0,15.1,85,30.48,10.0,Calm,Calm,-,N/A,,Clear,0,2012-11-16 10:54:00
5:54 AM,19.0,16.0,88,30.50,10.0,Calm,Calm,-,N/A,,Clear,0,2012-11-16 11:54:00
6:54 AM,19.0,16.0,88,30.51,10.0,Calm,Calm,-,N/A,,Clear,0,2012-11-16 12:54:00
7:54 AM,24.1,19.9,84,30.53,10.0,Calm,Calm,-,N/A,,Clear,0,2012-11-16 13:54:00
8:54 AM,28.9,24.1,82,30.54,10.0,NNW,3.5,-,N/A,,Clear,330,2012-11-16 14:54:00
9:54 AM,34.0,24.1,67,30.55,10.0,North,4.6,-,N/A,,Clear,350,2012-11-16 15:54:00
10:54 AM,35.1,23.0,61,30.55,10.0,East,4.6,-,N/A,,Clear,100,2012-11-16 16:54:00
11:54 AM,37.0,23.0,57,30.53,10.0,Variable,3.5,-,N/A,,Clear,0,2012-11-16 17:54:00
12:54 PM,37.9,21.0,51,30.53,10.0,Variable,3.5,-,N/A,,Clear,0,2012-11-16 18:54:00
1:54 PM,39.0,21.9,50,30.51,10.0,ESE,3.5,-,N/A,,Clear,110,2012-11-16 19:54:00
2:54 PM,39.9,19.9,45,30.51,10.0,Variable,3.5,-,N/A,,Clear,0,2012-11-16 20:54:00
3:54 PM,37.9,19.9,48,30.51,10.0,SE,4.6,-,N/A,,Clear,140,2012-11-16 21:54:00
4:54 PM,33.1,21.0,61,30.51,10.0,Calm,Calm,-,N/A,,Clear,0,2012-11-16 22:54:00
5:54 PM,30.0,21.0,69,30.51,10.0,Calm,Calm,-,N/A,,Clear,0,2012-11-16 23:54:00
6:54 PM,30.9,21.0,67,30.48,10.0,SE,4.6,-,N/A,,Clear,140,2012-11-17 00:54:00
7:54 PM,28.0,17.1,63,30.48,10.0,SE,5.8,-,N/A,,Clear,140,2012-11-17 01:54:00
8:54 PM,27.0,19.0,72,30.49,10.0,Calm,Calm,-,N/A,,Clear,0,2012-11-17 02:54:00
9:54 PM,24.1,17.1,75,30.50,10.0,Calm,Calm,-,N/A,,Clear,0,2012-11-17 03:54:00
10:54 PM,23.0,19.0,85,30.49,10.0,Calm,Calm,-,N/A,,Clear,0,2012-11-17 04:54:00
11:54 PM,21.9,18.0,85,30.49,10.0,Calm,Calm,-,N/A,,Clear,0,2012-11-17 05:54:00